N7460B EDAZ-EDXW

Flight info

Callsign N7460B
Flight time N/A
Altitude 2500
Route DCT SUKIP3Q/N0176F120 SUKIP M748 BUMIL ELSOB Y348 OMWEG BADOS OLDIP VFR DCT
Aircraft C208/L-SDFGYR/C

Departure

Time 2026-05-05 13:03
Airport Schönhagen Airfield (EDAZ)

Arrival

Time N/A
Airport Westerland Sylt Airport (EDXW)
Time Latitude Longitude Altitude Speed Heading
2026-05-05 12:54 52.20443 13.15176 145 ft 0 kts 165°
2026-05-05 12:57 52.20440 13.15177 145 ft 0 kts 165°
2026-05-05 12:58 52.20435 13.15176 145 ft 4 kts 199°
2026-05-05 12:59 52.20406 13.15107 138 ft 9 kts 242°
2026-05-05 12:59 52.20386 13.15022 138 ft 7 kts 272°
2026-05-05 12:59 52.20377 13.14960 138 ft 3 kts 200°
2026-05-05 13:00 52.20296 13.14964 128 ft 0 kts 165°
2026-05-05 13:01 52.20288 13.14967 133 ft 6 kts 169°
2026-05-05 13:01 52.20246 13.14984 131 ft 3 kts 153°
2026-05-05 13:01 52.20235 13.15011 133 ft 2 kts 85°
2026-05-05 13:01 52.20236 13.15018 133 ft 0 kts 75°
2026-05-05 13:02 52.20254 13.15138 138 ft 36 kts 75°
2026-05-05 13:03 52.20320 13.15559 136 ft 78 kts 76°
2026-05-05 13:03 52.20461 13.16556 346 ft 100 kts 76°
2026-05-05 13:03 52.20690 13.18233 692 ft 123 kts 78°
2026-05-05 13:03 52.20430 13.19633 803 ft 140 kts 132°
2026-05-05 13:04 52.19538 13.20120 799 ft 136 kts 178°
2026-05-05 13:04 52.18920 13.20173 880 ft 130 kts 175°
2026-05-05 13:04 52.18118 13.19665 901 ft 132 kts 231°
2026-05-05 13:04 52.17753 13.18323 925 ft 130 kts 259°
2026-05-05 13:05 52.17570 13.16865 944 ft 132 kts 261°
2026-05-05 13:05 52.17395 13.15388 988 ft 132 kts 261°
2026-05-05 13:05 52.17249 13.13904 1016 ft 133 kts 270°
2026-05-05 13:05 52.17636 13.12675 1028 ft 122 kts 326°
2026-05-05 13:06 52.18376 13.12062 934 ft 115 kts 340°
2026-05-05 13:06 52.19142 13.11852 836 ft 112 kts
2026-05-05 13:06 52.19791 13.12502 690 ft 107 kts 47°
2026-05-05 13:06 52.20022 13.13565 480 ft 90 kts 79°
2026-05-05 13:07 52.20153 13.14483 250 ft 79 kts 75°
2026-05-05 13:07 52.20283 13.15324 145 ft 70 kts 72°
2026-05-05 13:07 52.20380 13.15950 136 ft 34 kts 76°
2026-05-05 13:07 52.20419 13.16184 134 ft 25 kts 75°
2026-05-05 13:08 52.20451 13.16399 138 ft 8 kts 76°
2026-05-05 13:08 52.20469 13.16516 140 ft 12 kts 75°
2026-05-05 13:08 52.20491 13.16627 140 ft 6 kts 43°
2026-05-05 13:08 52.20524 13.16613 141 ft 11 kts 302°
2026-05-05 13:09 52.20546 13.16486 139 ft 12 kts 255°
2026-05-05 13:09 52.20528 13.16369 138 ft 11 kts 256°
2026-05-05 13:09 52.20509 13.16251 138 ft 9 kts 255°
2026-05-05 13:09 52.20493 13.16143 138 ft 13 kts 256°
2026-05-05 13:10 52.20468 13.15987 139 ft 14 kts 256°
2026-05-05 13:10 52.20445 13.15841 136 ft 12 kts 256°
2026-05-05 13:10 52.20419 13.15678 135 ft 14 kts 256°
2026-05-05 13:10 52.20402 13.15562 138 ft 9 kts 255°
2026-05-05 13:11 52.20386 13.15457 140 ft 11 kts 256°
2026-05-05 13:11 52.20365 13.15321 140 ft 12 kts 256°
2026-05-05 13:11 52.20346 13.15199 139 ft 12 kts 256°
2026-05-05 13:11 52.20337 13.15143 138 ft 0 kts 256°
2026-05-05 13:12 52.20336 13.15138 138 ft 4 kts 256°
2026-05-05 13:12 52.20320 13.15035 134 ft 12 kts 256°
2026-05-05 13:13 52.20296 13.14967 130 ft 4 kts 202°
2026-05-05 13:13 52.20248 13.14982 131 ft 2 kts 153°
2026-05-05 13:13 52.20235 13.15002 133 ft 2 kts 115°
2026-05-05 13:13 52.20234 13.15014 133 ft 0 kts 76°
2026-05-05 13:15 52.20246 13.15086 137 ft 27 kts 75°
2026-05-05 13:15 52.20348 13.15742 146 ft 88 kts 74°
2026-05-05 13:15 52.20507 13.16828 360 ft 111 kts 74°
2026-05-05 13:16 52.20723 13.18180 580 ft 134 kts 78°
2026-05-05 13:16 52.20464 13.19678 786 ft 149 kts 130°
2026-05-05 13:16 52.19526 13.20405 1004 ft 150 kts 171°
2026-05-05 13:16 52.18537 13.20655 1211 ft 140 kts 170°
2026-05-05 13:17 52.17591 13.20898 1427 ft 136 kts 171°
2026-05-05 13:17 52.16665 13.21295 1458 ft 140 kts 145°
2026-05-05 13:17 52.16184 13.22602 1468 ft 137 kts 92°
2026-05-05 13:17 52.16260 13.24128 1471 ft 134 kts 81°
2026-05-05 13:18 52.16437 13.25566 1460 ft 126 kts 70°
2026-05-05 13:18 52.16693 13.26889 1461 ft 122 kts 69°
2026-05-05 13:18 52.16931 13.28207 1456 ft 119 kts 69°
2026-05-05 13:18 52.17173 13.29490 1457 ft 117 kts 69°
2026-05-05 13:19 52.17413 13.30762 1467 ft 121 kts 69°
2026-05-05 13:19 52.17668 13.32072 1465 ft 121 kts 69°
2026-05-05 13:19 52.17923 13.33380 1469 ft 122 kts 69°
2026-05-05 13:19 52.18177 13.34682 1470 ft 120 kts 69°
2026-05-05 13:20 52.18432 13.35992 1476 ft 123 kts 70°
2026-05-05 13:20 52.18694 13.37326 1468 ft 124 kts 70°
2026-05-05 13:20 52.18968 13.38673 1472 ft 125 kts 69°
2026-05-05 13:20 52.19175 13.40053 1468 ft 127 kts 86°
2026-05-05 13:21 52.19123 13.41492 1466 ft 127 kts 90°
2026-05-05 13:21 52.19077 13.42920 1466 ft 126 kts 91°
2026-05-05 13:21 52.19040 13.44347 1467 ft 126 kts 90°
2026-05-05 13:21 52.19003 13.45767 1468 ft 125 kts 89°
2026-05-05 13:22 52.18978 13.47171 1467 ft 126 kts 89°
2026-05-05 13:22 52.18943 13.48615 1470 ft 129 kts 89°
2026-05-05 13:22 52.18904 13.50077 1475 ft 130 kts 89°
2026-05-05 13:22 52.18856 13.51548 1472 ft 129 kts 90°
2026-05-05 13:23 52.18817 13.53004 1476 ft 129 kts 89°
2026-05-05 13:23 52.18780 13.54466 1469 ft 129 kts 89°
2026-05-05 13:23 52.18743 13.55934 1469 ft 130 kts 89°
2026-05-05 13:23 52.18704 13.57380 1466 ft 128 kts 88°
2026-05-05 13:24 52.18663 13.58829 1464 ft 128 kts 89°
2026-05-05 13:24 52.18617 13.60264 1460 ft 126 kts 90°
2026-05-05 13:24 52.18740 13.61642 1457 ft 123 kts 55°
2026-05-05 13:24 52.19457 13.62286 1459 ft 122 kts
2026-05-05 13:25 52.20293 13.62078 1465 ft 122 kts 341°
2026-05-05 13:25 52.21076 13.61550 1472 ft 122 kts 337°
2026-05-05 13:25 52.21857 13.61002 1479 ft 123 kts 338°
2026-05-05 13:25 52.22651 13.60430 1469 ft 127 kts 338°
2026-05-05 13:26 52.23440 13.59871 1463 ft 119 kts 338°
2026-05-05 13:26 52.24204 13.59857 1456 ft 114 kts 30°
2026-05-05 13:26 52.24548 13.60943 1456 ft 114 kts 95°
2026-05-05 13:26 52.24066 13.61930 1452 ft 120 kts 159°
2026-05-05 13:27 52.23278 13.61715 1453 ft 122 kts 220°
2026-05-05 13:27 52.23009 13.60489 1454 ft 116 kts 286°
2026-05-05 13:27 52.23511 13.59584 1462 ft 110 kts 335°
2026-05-05 13:27 52.24190 13.59012 1471 ft 109 kts 336°
2026-05-05 13:28 52.24897 13.58523 1469 ft 112 kts 339°
2026-05-05 13:28 52.25618 13.58019 1472 ft 114 kts 339°
2026-05-05 13:28 52.26337 13.57512 1475 ft 111 kts 338°
2026-05-05 13:28 52.27044 13.57029 1472 ft 110 kts 338°
2026-05-05 13:29 52.27761 13.56544 1471 ft 113 kts 340°
2026-05-05 13:29 52.28450 13.55904 1473 ft 117 kts 319°
2026-05-05 13:29 52.28896 13.54789 1474 ft 119 kts 291°
2026-05-05 13:29 52.29116 13.53504 1474 ft 117 kts 288°
2026-05-05 13:30 52.29341 13.52221 1466 ft 117 kts 288°
2026-05-05 13:30 52.29557 13.50942 1464 ft 117 kts 288°
2026-05-05 13:30 52.29761 13.49663 1454 ft 115 kts 288°
2026-05-05 13:30 52.29954 13.48462 1472 ft 107 kts 287°
2026-05-05 13:31 52.30149 13.47322 1471 ft 104 kts 288°
2026-05-05 13:31 52.30342 13.46188 1471 ft 103 kts 288°
2026-05-05 13:31 52.30518 13.45077 1472 ft 101 kts 288°
2026-05-05 13:31 52.30685 13.43959 1434 ft 102 kts 288°
2026-05-05 13:32 52.31150 13.43123 1354 ft 102 kts 338°
2026-05-05 13:32 52.31859 13.42777 1212 ft 108 kts 345°
2026-05-05 13:32 52.32613 13.42674 1139 ft 109 kts
2026-05-05 13:32 52.33342 13.42991 942 ft 110 kts 31°
2026-05-05 13:33 52.33842 13.43919 674 ft 108 kts 60°
2026-05-05 13:33 52.34100 13.44994 474 ft 94 kts 69°
2026-05-05 13:33 52.34322 13.45939 315 ft 84 kts 67°
2026-05-05 13:33 52.34528 13.46802 213 ft 83 kts 66°
2026-05-05 13:34 52.34739 13.47673 165 ft 76 kts 70°
2026-05-05 13:34 52.34915 13.48412 153 ft 66 kts 70°
2026-05-05 13:34 52.35124 13.49330 244 ft 100 kts 70°
2026-05-05 13:34 52.35380 13.50514 391 ft 123 kts 68°
2026-05-05 13:35 52.35673 13.51886 530 ft 126 kts 69°
2026-05-05 13:35 52.35933 13.53219 715 ft 122 kts 71°
2026-05-05 13:35 52.35822 13.54544 888 ft 124 kts 125°
2026-05-05 13:35 52.35074 13.55321 967 ft 133 kts 152°
2026-05-05 13:36 52.34212 13.55964 969 ft 136 kts 161°
2026-05-05 13:36 52.33319 13.55784 948 ft 132 kts 217°
2026-05-05 13:36 52.32808 13.54605 960 ft 127 kts 244°
2026-05-05 13:36 52.32446 13.53309 959 ft 125 kts 248°
2026-05-05 13:37 52.32111 13.52006 956 ft 124 kts 249°
2026-05-05 13:37 52.31793 13.50679 955 ft 126 kts 250°
2026-05-05 13:37 52.31473 13.49349 959 ft 127 kts 250°
2026-05-05 13:37 52.31160 13.48049 1090 ft 123 kts 250°
2026-05-05 13:38 52.30835 13.46706 1427 ft 132 kts 251°
2026-05-05 13:38 52.30480 13.45281 1820 ft 137 kts 251°
2026-05-05 13:38 52.30120 13.43847 2208 ft 132 kts 251°
2026-05-05 13:38 52.29791 13.42509 2575 ft 122 kts 250°
2026-05-05 13:39 52.29493 13.41240 2942 ft 119 kts 251°
2026-05-05 13:39 52.29200 13.39981 3310 ft 118 kts 250°
2026-05-05 13:39 52.28908 13.38730 3687 ft 117 kts 251°
2026-05-05 13:39 52.28621 13.37476 4061 ft 118 kts 251°
2026-05-05 13:40 52.28342 13.36219 4440 ft 117 kts 251°
2026-05-05 13:40 52.28067 13.34983 4819 ft 115 kts 251°
2026-05-05 13:40 52.27792 13.33766 5186 ft 113 kts 251°
2026-05-05 13:40 52.27525 13.32559 5559 ft 112 kts 251°
2026-05-05 13:41 52.27368 13.31331 5930 ft 111 kts 272°
2026-05-05 13:41 52.27360 13.30076 6308 ft 110 kts 265°
2026-05-05 13:41 52.27337 13.28850 6661 ft 111 kts 269°
2026-05-05 13:41 52.27325 13.27569 7027 ft 116 kts 268°
2026-05-05 13:42 52.27308 13.26181 7290 ft 128 kts 268°
2026-05-05 13:42 52.27289 13.24684 7557 ft 135 kts 268°
2026-05-05 13:42 52.27266 13.23117 7824 ft 140 kts 268°
2026-05-05 13:42 52.27242 13.21502 8088 ft 144 kts 268°
2026-05-05 13:43 52.27217 13.19860 8348 ft 146 kts 268°
2026-05-05 13:43 52.27192 13.18195 8610 ft 148 kts 267°
2026-05-05 13:43 52.27166 13.16511 8864 ft 148 kts 267°
2026-05-05 13:43 52.27139 13.14826 9128 ft 148 kts 267°
2026-05-05 13:44 52.27113 13.13153 9393 ft 147 kts 267°
2026-05-05 13:44 52.27086 13.11484 9654 ft 147 kts 267°
2026-05-05 13:44 52.27059 13.09823 9899 ft 146 kts 266°
2026-05-05 13:44 52.27032 13.08167 10139 ft 146 kts 266°
2026-05-05 13:45 52.27006 13.06516 10376 ft 147 kts 266°
2026-05-05 13:45 52.26978 13.04852 10615 ft 146 kts 266°
2026-05-05 13:45 52.26950 13.03196 10858 ft 145 kts 266°
2026-05-05 13:45 52.26923 13.01547 11101 ft 145 kts 266°
2026-05-05 13:46 52.26895 12.99906 11344 ft 144 kts 266°
2026-05-05 13:46 52.26868 12.98274 11592 ft 144 kts 266°
2026-05-05 13:46 52.26840 12.96641 11843 ft 143 kts 265°
2026-05-05 13:46 52.26811 12.94984 11956 ft 152 kts 266°
2026-05-05 13:47 52.26778 12.93196 11969 ft 162 kts 266°
2026-05-05 13:47 52.26745 12.91312 11970 ft 169 kts 266°
2026-05-05 13:47 52.26710 12.89371 11972 ft 172 kts 266°
2026-05-05 13:47 52.26673 12.87406 11966 ft 174 kts 266°
2026-05-05 13:48 52.26637 12.85426 11967 ft 175 kts 266°
2026-05-05 13:48 52.26601 12.83441 11968 ft 175 kts 266°
2026-05-05 13:48 52.26564 12.81445 11968 ft 175 kts 266°
2026-05-05 13:48 52.26528 12.79482 11967 ft 175 kts 266°
2026-05-05 13:49 52.26490 12.77485 11965 ft 176 kts 266°
2026-05-05 13:49 52.26453 12.75487 11964 ft 176 kts 266°
2026-05-05 13:49 52.26415 12.73495 11967 ft 176 kts 266°
2026-05-05 13:49 52.26376 12.71500 11967 ft 176 kts 266°
2026-05-05 13:50 52.26337 12.69502 11966 ft 176 kts 266°
2026-05-05 13:50 52.26298 12.67497 11967 ft 176 kts 266°
2026-05-05 13:50 52.26259 12.65495 11966 ft 177 kts 266°
2026-05-05 13:50 52.26219 12.63490 11965 ft 177 kts 266°
2026-05-05 13:51 52.26192 12.62163 11966 ft 177 kts 266°
2026-05-05 13:51 52.26151 12.60163 11966 ft 176 kts 266°
2026-05-05 13:51 52.26111 12.58162 11966 ft 176 kts 266°
2026-05-05 13:51 52.26070 12.56161 11966 ft 177 kts 266°
2026-05-05 13:52 52.26015 12.53510 11966 ft 176 kts 266°
2026-05-05 13:52 52.25973 12.51510 11967 ft 176 kts 266°
2026-05-05 13:52 52.25931 12.49512 11967 ft 176 kts 266°
2026-05-05 13:52 52.25945 12.48158 11962 ft 178 kts 275°
2026-05-05 13:53 52.26412 12.46279 11956 ft 182 kts 300°
2026-05-05 13:53 52.27271 12.44730 11960 ft 184 kts 310°
2026-05-05 13:53 52.28155 12.43220 11961 ft 184 kts 309°
2026-05-05 13:53 52.29023 12.41713 11962 ft 184 kts 309°
2026-05-05 13:54 52.29907 12.40177 11894 ft 188 kts 309°
2026-05-05 13:54 52.30804 12.38623 11865 ft 187 kts 309°
2026-05-05 13:54 52.31692 12.37085 11869 ft 186 kts 309°
2026-05-05 13:54 52.32580 12.35543 11871 ft 186 kts 309°
2026-05-05 13:55 52.33484 12.34028 11868 ft 187 kts 314°
2026-05-05 13:55 52.34469 12.32639 11870 ft 187 kts 314°
2026-05-05 13:55 52.35448 12.31233 11871 ft 188 kts 314°
2026-05-05 13:55 52.36427 12.29820 11870 ft 188 kts 314°
2026-05-05 13:56 52.37407 12.28409 11871 ft 188 kts 313°
2026-05-05 13:56 52.38384 12.27002 11870 ft 187 kts 313°
2026-05-05 13:56 52.39360 12.25598 11868 ft 186 kts 313°
2026-05-05 13:56 52.40328 12.24205 11866 ft 185 kts 313°
2026-05-05 13:57 52.41295 12.22813 11863 ft 184 kts 313°
2026-05-05 13:57 52.42253 12.21432 11862 ft 184 kts 313°
2026-05-05 13:57 52.43213 12.20046 11862 ft 184 kts 313°
2026-05-05 13:57 52.44171 12.18662 11861 ft 183 kts 313°
2026-05-05 13:58 52.45117 12.17296 11863 ft 183 kts 313°
2026-05-05 13:58 52.46073 12.15915 11863 ft 183 kts 313°
2026-05-05 13:58 52.47030 12.14530 11863 ft 184 kts 313°
2026-05-05 13:58 52.47988 12.13143 11863 ft 184 kts 313°
2026-05-05 13:59 52.49903 12.10369 11863 ft 184 kts 313°
2026-05-05 13:59 52.50859 12.08982 11863 ft 184 kts 313°
2026-05-05 14:00 52.52773 12.06204 11863 ft 183 kts 313°
2026-05-05 14:00 52.53729 12.04816 11879 ft 184 kts 313°
2026-05-05 14:00 52.54685 12.03426 11882 ft 183 kts 313°
2026-05-05 14:00 52.55640 12.02037 11882 ft 183 kts 313°
2026-05-05 14:01 52.56595 12.00648 11882 ft 183 kts 313°
2026-05-05 14:01 52.57548 11.99261 11882 ft 183 kts 313°
2026-05-05 14:01 52.58500 11.97873 11883 ft 183 kts 313°
2026-05-05 14:01 52.59455 11.96481 11882 ft 183 kts 313°
2026-05-05 14:02 52.60409 11.95089 11883 ft 183 kts 313°
2026-05-05 14:02 52.61363 11.93696 11883 ft 183 kts 313°
2026-05-05 14:02 52.62318 11.92302 11883 ft 183 kts 313°
2026-05-05 14:02 52.63268 11.90913 11882 ft 183 kts 313°
2026-05-05 14:03 52.64258 11.89619 11882 ft 184 kts 317°
2026-05-05 14:03 52.65277 11.88339 11885 ft 184 kts 316°
2026-05-05 14:03 52.66291 11.87050 11889 ft 184 kts 317°
2026-05-05 14:03 52.67309 11.85761 11890 ft 184 kts 317°
2026-05-05 14:04 52.68322 11.84480 11889 ft 183 kts 317°
2026-05-05 14:04 52.69332 11.83202 11889 ft 183 kts 317°
2026-05-05 14:04 52.70345 11.81920 11889 ft 183 kts 317°
2026-05-05 14:04 52.71353 11.80644 11889 ft 183 kts 317°
2026-05-05 14:05 52.72363 11.79364 11891 ft 183 kts 317°
2026-05-05 14:05 52.73372 11.78086 11891 ft 183 kts 317°
2026-05-05 14:05 52.74368 11.76822 11893 ft 183 kts 317°
2026-05-05 14:05 52.75380 11.75534 11893 ft 184 kts 317°
2026-05-05 14:06 52.76397 11.74244 11892 ft 184 kts 317°
2026-05-05 14:06 52.77410 11.72959 11898 ft 183 kts 317°
2026-05-05 14:06 52.78420 11.71673 11897 ft 183 kts 317°
2026-05-05 14:06 52.79432 11.70385 11897 ft 183 kts 317°
2026-05-05 14:07 52.80429 11.69116 11895 ft 183 kts 317°
2026-05-05 14:07 52.81438 11.67830 11894 ft 183 kts 317°
2026-05-05 14:07 52.82446 11.66546 11894 ft 183 kts 317°
2026-05-05 14:07 52.83458 11.65256 11895 ft 184 kts 317°
2026-05-05 14:08 52.84469 11.63964 11897 ft 183 kts 317°
2026-05-05 14:08 52.85480 11.62676 11898 ft 184 kts 317°
2026-05-05 14:08 52.86489 11.61384 11897 ft 183 kts 317°
2026-05-05 14:08 52.87500 11.60091 11897 ft 183 kts 317°
2026-05-05 14:09 52.88512 11.58798 11903 ft 183 kts 317°
2026-05-05 14:09 52.89523 11.57503 11905 ft 183 kts 317°
2026-05-05 14:09 52.90531 11.56211 11905 ft 183 kts 317°
2026-05-05 14:09 52.91540 11.54919 11905 ft 183 kts 317°
2026-05-05 14:10 52.92549 11.53624 11902 ft 183 kts 317°
2026-05-05 14:10 52.93558 11.52330 11902 ft 183 kts 317°
2026-05-05 14:10 52.94564 11.51040 11902 ft 183 kts 317°
2026-05-05 14:10 52.95570 11.49748 11902 ft 183 kts 317°
2026-05-05 14:11 52.96577 11.48456 11904 ft 183 kts 317°